This is the latest recevied weather packets stored in our database for station/object K0APR. If no packets are shown the sender has not sent any weather packets the latest 10 day(s).
| Time | Temp. | Humidity | Pressure | Rain* | Wind** | Luminosity | Snow |
|---|---|---|---|---|---|---|---|
| 1778004817 | 8.89° C | 39% | 1012.3 hPa | 0 mm | - | 228 W/m² | - |
| 1778004513 | 9.44° C | 39% | 1012.3 hPa | 0 mm | - | 201 W/m² | - |
| 1778004210 | 8.89° C | 38% | 1012.3 hPa | 0 mm | - | 239 W/m² | - |
| 1778003906 | 8.89° C | 39% | 1012.3 hPa | 0 mm | - | 283 W/m² | - |
| 1778003603 | 8.89° C | 39% | 1012.3 hPa | 0 mm | - | 298 W/m² | - |
| 1778003299 | 8.89° C | 39% | 1012.3 hPa | 0 mm | - | 250 W/m² | - |
| 1778002997 | 8.89° C | 39% | 1012 hPa | 0 mm | - | 283 W/m² | - |
| 1778002693 | 8.89° C | 39% | 1012.3 hPa | 0 mm | - | 258 W/m² | - |
| 1778002389 | 8.89° C | 38% | 1012 hPa | 0 mm | - | 287 W/m² | - |
| 1778002086 | 10° C | 37% | 1012 hPa | 0 mm | - | 246 W/m² | - |
| 1778001784 | 9.44° C | 36% | 1012 hPa | 0 mm | - | 398 W/m² | - |
| 1778001478 | 8.89° C | 37% | 1012 hPa | 0 mm | - | 333 W/m² | - |
| 1778001175 | 8.89° C | 38% | 1012.3 hPa | 0 mm | - | 333 W/m² | - |
| 1778000872 | 8.89° C | 39% | 1012 hPa | 0 mm | - | 235 W/m² | - |
| 1778000569 | 9.44° C | 38% | 1012 hPa | 0 mm | - | 399 W/m² | - |
| 1777999960 | 7.78° C | 42% | 1012.3 hPa | 0 mm | - | 273 W/m² | - |
| 1777999656 | 8.33° C | 42% | 1012 hPa | 0 mm | - | 212 W/m² | - |
| 1777999353 | 8.33° C | 43% | 1012.3 hPa | 0 mm | - | 222 W/m² | - |
| 1777999051 | 8.33° C | 41% | 1012.3 hPa | 0 mm | - | 223 W/m² | - |
| 1777998750 | 8.89° C | 43% | 1012.3 hPa | 0 mm | - | 282 W/m² | - |
| 1777998447 | 8.89° C | 41% | 1012 hPa | 0 mm | - | 947 W/m² | - |
| 1777998144 | 7.78° C | 41% | 1012.3 hPa | 0 mm | - | 287 W/m² | - |
| 1777997840 | 8.33° C | 42% | 1012.3 hPa | 0 mm | - | 262 W/m² | - |
| 1777997538 | 7.78° C | 43% | 1012 hPa | 0 mm | - | 241 W/m² | - |
| 1777997235 | 7.78° C | 45% | 1012 hPa | 0 mm | - | 272 W/m² | - |
* Rain latest hour (hover to see other rain measurements)
** Current wind speed in m/s (hover to see current wind gust speed)